Flag for Norway Weather past 2 weeks in Brumunddal, Norway

Now
59 °F

Cool.


Feels Like: 59 °F
Forecast: 39 / 63 °F
Wind: 1 mph from Southwest

Location: Lillehammer-Saetherengen

Current Time: Aug 3, 2015 at 9:36:35 PM

Latest Report: Aug 3, 2015 at 8:00 PM


Visibility: N/A

Pressure: 30.09 "Hg

Humidity: 65%

Dew point: 47 °F

Location of BrumunddalLocation

Historic Weather in Brumunddal — Graph

°F

Brumunddal temperature yesterday

Maximum temperature yesterday: 60 °F (at 6:00 PM)
Minimum temperature yesterday: 50 °F (at 8:00 AM)
Average temperature yesterday: 54 °F

Past Weeks' High & Low Weather Summary

 TemperatureHumidityPressure
High72 °F (Jul 22, 4:00 PM)96% (Jul 27, 8:00 AM)30.16 "Hg (Jul 27, 8:00 AM)
Low42 °F (Aug 3, 5:00 AM)37% (Jul 22, 4:00 PM)29.35 "Hg (Jul 26, 10:00 PM)
Average56 °F74%29.67 "Hg
* Reported Jul 19 8:00 PM — Aug 3 8:00 PM, Brumunddal, Weather by CustomWeather, © 2015

Note: Actual official high and low records may vary slightly from our data, if they occured in-between our weather recording intervals... More about our weather records

Advertising

Brumunddal weather history for previous 24 hours

 ConditionsComfort  
Time TempWeatherWind HumidityBarometerVisibility
8:00 PM
Mon, Aug 3
59 °FCool.1 mph65%30.09 "HgN/A
7:00 PM61 °FRefreshingly cool.1 mph59%30.09 "HgN/A
6:00 PM60 °FCool.1 mph62%30.10 "HgN/A
5:00 PM62 °FCool.2 mph60%30.11 "HgN/A
4:00 PM60 °FCool.3 mph61%30.12 "HgN/A
3:00 PM59 °FCool.2 mph62%30.12 "HgN/A
2:00 PM59 °FRefreshingly cool.1 mph58%30.13 "HgN/A
1:00 PM59 °FRefreshingly cool.2 mph58%30.13 "HgN/A
12:00 PM58 °FCool.2 mph65%30.13 "HgN/A
11:00 AM56 °FCool.2 mph63%30.15 "HgN/A
10:00 AM54 °FCool.1 mph69%30.15 "HgN/A
9:00 AM49 °FCool.2 mph75%30.16 "HgN/A
8:00 AM46 °FCool.1 mph85%30.16 "HgN/A
7:00 AM45 °FQuite cool.1 mph90%30.16 "HgN/A
5:00 AM42 °FQuite cool.1 mph90%30.16 "HgN/A
4:00 AM43 °FQuite cool.1 mph86%30.15 "HgN/A
3:00 AM44 °FQuite cool.1 mph86%30.13 "HgN/A
2:00 AM45 °FCool.1 mph82%30.12 "HgN/A
1:00 AM46 °FCool.1 mph82%30.11 "HgN/A
12:00 AM48 °FCool.1 mph80%30.08 "HgN/A
11:00 PM
Sun, Aug 2
50 °FCool.1 mph72%30.06 "HgN/A
10:00 PM52 °FCool.1 mph72%30.03 "HgN/A
9:00 PM57 °FCool.1 mph63%29.99 "HgN/A
Weather by CustomWeather, © 2015

See weather overviewHow to use our weather pages